When you browse on this site, cookies collect data to enhance your experience and personalize the content and advertising you see.
Visit our Privacy Policy to learn more. By continuing to use the site, you agree to this use of cookies and data.
  • Em Portugal
  • Lista de países
  • Para 7 dias
  • Temperatura da água
  • Mapas de satélite
  • Mapa do tempo
  • Widgets de tempo
  • user-avatar
    Iniciar Sessão

    Previsão horária em Biele

    Hoje, 20 Abril, Sábado

    Tempo Temperatura Precipitação Vento Pressão Humidade
    00:00 +7°C° 0 mm 3 m/s 765 mmHg 61%
    01:00 +7°C° 0 mm 3 m/s 764 mmHg 59%
    02:00 +5°C° 0 mm 3 m/s 764 mmHg 58%
    03:00 +5°C° 0 mm 2 m/s 764 mmHg 56%
    04:00 +4°C° 0 mm 2 m/s 764 mmHg 55%
    05:00 +5°C° 0 mm 2 m/s 764 mmHg 55%
    06:00 +6°C° 0 mm 2 m/s 764 mmHg 56%
    07:00 +7°C° 0 mm 2 m/s 764 mmHg 56%
    08:00 +10°C° 0 mm 3 m/s 764 mmHg 52%
    09:00 +12°C° 0 mm 3 m/s 764 mmHg 49%
    10:00 +14°C° 0 mm 3 m/s 764 mmHg 46%
    11:00 +16°C° 0 mm 3 m/s 763 mmHg 44%
    12:00 +17°C° 0 mm 3 m/s 763 mmHg 42%
    13:00 +19°C° 0 mm 3 m/s 763 mmHg 39%
    14:00 +18°C° 0 mm 4 m/s 763 mmHg 39%
    15:00 +18°C° 0 mm 4 m/s 762 mmHg 38%
    16:00 +18°C° 0 mm 4 m/s 762 mmHg 37%
    17:00 +15°C° 0 mm 4 m/s 762 mmHg 43%
    18:00 +13°C° 0 mm 4 m/s 762 mmHg 49%
    19:00 +11°C° 0 mm 3 m/s 762 mmHg 55%
    20:00 +10°C° 0 mm 3 m/s 762 mmHg 57%
    21:00 +9°C° 0 mm 3 m/s 762 mmHg 58%
    22:00 +8°C° 0 mm 3 m/s 762 mmHg 60%
    23:00 +7°C° 0 mm 3 m/s 762 mmHg 62%

    Amanhã, 21 Abril, Domingo

    Tempo Temperatura Precipitação Vento Pressão Humidade
    00:00 +5°C° 0 mm 3 m/s 762 mmHg 65%
    01:00 +5°C° 0 mm 3 m/s 762 mmHg 67%
    02:00 +5°C° 0 mm 2 m/s 761 mmHg 69%
    03:00 +5°C° 0 mm 2 m/s 761 mmHg 71%
    04:00 +4°C° 0 mm 2 m/s 761 mmHg 73%
    05:00 +5°C° 0 mm 3 m/s 761 mmHg 69%
    06:00 +7°C° 0 mm 3 m/s 761 mmHg 66%
    07:00 +8°C° 0 mm 3 m/s 761 mmHg 62%
    08:00 +10°C° 0 mm 3 m/s 760 mmHg 56%
    09:00 +12°C° 0 mm 3 m/s 760 mmHg 49%
    10:00 +14°C° 0 mm 3 m/s 760 mmHg 42%
    11:00 +16°C° 0 mm 3 m/s 759 mmHg 39%
    12:00 +17°C° 0 mm 3 m/s 759 mmHg 37%
    13:00 +18°C° 0 mm 3 m/s 758 mmHg 34%
    14:00 +18°C° 0 mm 3 m/s 758 mmHg 35%
    15:00 +18°C° 0 mm 3 m/s 758 mmHg 36%
    16:00 +18°C° 0 mm 3 m/s 757 mmHg 37%
    17:00 +17°C° 0 mm 3 m/s 757 mmHg 42%
    18:00 +16°C° 0 mm 3 m/s 757 mmHg 47%
    19:00 +13°C° 0 mm 3 m/s 756 mmHg 52%
    20:00 +12°C° 0 mm 3 m/s 757 mmHg 57%
    21:00 +11°C° 0 mm 4 m/s 757 mmHg 63%
    22:00 +8°C° 0 mm 5 m/s 757 mmHg 69%
    23:00 +7°C° 0 mm 4 m/s 757 mmHg 75%

    Depois de amanhã, 22 Abril, Segunda-feira

    Tempo Temperatura Precipitação Vento Pressão Humidade
    00:00 +7°C° 0 mm 3 m/s 756 mmHg 81%
    01:00 +5°C° 0 mm 2 m/s 756 mmHg 87%
    02:00 +5°C° 0 mm 2 m/s 756 mmHg 89%
    03:00 +5°C° 0 mm 2 m/s 756 mmHg 90%
    04:00 +4°C° 0 mm 2 m/s 756 mmHg 92%
    05:00 +4°C° 0 mm 3 m/s 756 mmHg 85%
    06:00 +5°C° 0 mm 3 m/s 756 mmHg 78%
    07:00 +8°C° 0 mm 3 m/s 756 mmHg 70%
    08:00 +8°C° 0 mm 4 m/s 756 mmHg 66%
    09:00 +11°C° 0 mm 4 m/s 756 mmHg 62%
    10:00 +13°C° 0 mm 5 m/s 756 mmHg 57%
    11:00 +14°C° 0 mm 6 m/s 756 mmHg 55%
    12:00 +14°C° 0 mm 6 m/s 756 mmHg 54%
    13:00 +15°C° 0 mm 7 m/s 755 mmHg 52%
    14:00 +15°C° 0 mm 7 m/s 755 mmHg 52%
    15:00 +15°C° 0 mm 7 m/s 755 mmHg 53%
    16:00 +16°C° 0 mm 7 m/s 755 mmHg 53%
    17:00 +15°C° 0 mm 6 m/s 755 mmHg 58%
    18:00 +13°C° 0 mm 6 m/s 755 mmHg 63%
    19:00 +12°C° 0 mm 5 m/s 755 mmHg 69%
    20:00 +12°C° 0 mm 5 m/s 755 mmHg 68%
    21:00 +10°C° 0 mm 6 m/s 755 mmHg 67%
    22:00 +10°C° 0 mm 6 m/s 755 mmHg 65%
    23:00 +9°C° 0 mm 7 m/s 755 mmHg 63%

    23 Abril, Terça-feira

    Tempo Temperatura Precipitação Vento Pressão Humidade
    00:00 +9°C° 0 mm 7 m/s 755 mmHg 61%
    01:00 +7°C° 0 mm 8 m/s 755 mmHg 59%
    02:00 +7°C° 0 mm 8 m/s 754 mmHg 60%
    03:00 +7°C° 0 mm 8 m/s 754 mmHg 60%
    04:00 +6°C° 0 mm 8 m/s 754 mmHg 60%
    05:00 +7°C° 0 mm 9 m/s 753 mmHg 61%
    06:00 +7°C° 0 mm 9 m/s 753 mmHg 61%
    07:00 +8°C° 0 mm 10 m/s 753 mmHg 61%
    08:00 +9°C° 0 mm 10 m/s 753 mmHg 58%
    09:00 +12°C° 0 mm 10 m/s 753 mmHg 55%
    10:00 +13°C° 0 mm 10 m/s 752 mmHg 52%
    11:00 +14°C° 0 mm 10 m/s 752 mmHg 51%
    12:00 +16°C° 0 mm 10 m/s 752 mmHg 50%
    13:00 +17°C° 0 mm 10 m/s 751 mmHg 49%
    14:00 +17°C° 0 mm 10 m/s 751 mmHg 50%
    15:00 +17°C° 0 mm 9 m/s 750 mmHg 51%
    16:00 +16°C° 0 mm 9 m/s 750 mmHg 52%
    17:00 +16°C° 0 mm 9 m/s 750 mmHg 53%
    18:00 +15°C° 0 mm 9 m/s 750 mmHg 54%
    19:00 +13°C° 0 mm 9 m/s 750 mmHg 56%
    20:00 +12°C° 0.2 mm 9 m/s 750 mmHg 63%
    21:00 +11°C° 0.2 mm 9 m/s 750 mmHg 71%
    22:00 +10°C° 0.2 mm 9 m/s 749 mmHg 78%
    23:00 +10°C° 1.4 mm 8 m/s 749 mmHg 79%

    24 Abril, Quarta-feira

    Tempo Temperatura Precipitação Vento Pressão Humidade
    00:00 +10°C° 1.4 mm 8 m/s 749 mmHg 79%
    01:00 +10°C° 1.4 mm 7 m/s 749 mmHg 80%
    02:00 +10°C° 0.1 mm 7 m/s 749 mmHg 80%
    03:00 +9°C° 0.1 mm 7 m/s 748 mmHg 80%
    04:00 +9°C° 0.1 mm 7 m/s 748 mmHg 80%
    05:00 +10°C° 0 mm 7 m/s 748 mmHg 78%
    06:00 +11°C° 0 mm 7 m/s 748 mmHg 76%
    07:00 +12°C° 0 mm 8 m/s 749 mmHg 74%
    08:00 +15°C° 0 mm 8 m/s 749 mmHg 70%
    09:00 +16°C° 0 mm 8 m/s 749 mmHg 66%
    10:00 +18°C° 0 mm 8 m/s 749 mmHg 61%
    11:00 +18°C° 0 mm 8 m/s 749 mmHg 61%
    12:00 +20°C° 0 mm 7 m/s 749 mmHg 60%
    13:00 +21°C° 0 mm 7 m/s 749 mmHg 59%
    14:00 +21°C° 0 mm 6 m/s 749 mmHg 59%
    15:00 +21°C° 0 mm 6 m/s 749 mmHg 59%
    16:00 +22°C° 0 mm 6 m/s 749 mmHg 59%
    17:00 +20°C° 0 mm 5 m/s 750 mmHg 64%
    18:00 +19°C° 0 mm 4 m/s 750 mmHg 70%
    19:00 +17°C° 0 mm 3 m/s 750 mmHg 75%
    20:00 +17°C° 0 mm 3 m/s 750 mmHg 78%
    21:00 +16°C° 0 mm 3 m/s 751 mmHg 80%
    22:00 +14°C° 0 mm 3 m/s 751 mmHg 83%
    23:00 +14°C° 0 mm 4 m/s 751 mmHg 82%

    25 Abril, Quinta-feira

    Tempo Temperatura Precipitação Vento Pressão Humidade
    00:00 +13°C° 0 mm 4 m/s 751 mmHg 82%
    01:00 +13°C° 0 mm 4 m/s 751 mmHg 82%
    02:00 +13°C° 0 mm 4 m/s 751 mmHg 83%
    03:00 +12°C° 0 mm 4 m/s 751 mmHg 83%
    04:00 +12°C° 0 mm 4 m/s 751 mmHg 84%
    05:00 +13°C° 0 mm 4 m/s 751 mmHg 81%
    06:00 +15°C° 0 mm 5 m/s 751 mmHg 78%
    07:00 +16°C° 0 mm 5 m/s 751 mmHg 75%
    08:00 +19°C° 0 mm 5 m/s 751 mmHg 70%
    09:00 +20°C° 0 mm 6 m/s 751 mmHg 64%
    10:00 +22°C° 0 mm 6 m/s 751 mmHg 59%
    11:00 +22°C° 0 mm 6 m/s 750 mmHg 57%
    12:00 +23°C° 0 mm 6 m/s 750 mmHg 55%
    13:00 +24°C° 0 mm 6 m/s 750 mmHg 53%
    14:00 +25°C° 0 mm 5 m/s 750 mmHg 53%
    15:00 +25°C° 0 mm 5 m/s 750 mmHg 52%
    16:00 +26°C° 0 mm 5 m/s 749 mmHg 52%
    17:00 +23°C° 0 mm 4 m/s 749 mmHg 58%
    18:00 +21°C° 0 mm 3 m/s 749 mmHg 65%
    19:00 +20°C° 0 mm 2 m/s 749 mmHg 72%
    20:00 +19°C° 0 mm 3 m/s 749 mmHg 73%
    21:00 +18°C° 0 mm 3 m/s 749 mmHg 74%
    22:00 +18°C° 0 mm 3 m/s 749 mmHg 75%
    23:00 +17°C° 0 mm 3 m/s 749 mmHg 75%
    Mostrar mais